Пущино

Россия / Камчатский край     54°10′37″N   158°00′21″E
В апреле 2022 года жителям России запретили посещать сайт meteo.paraplan.net по решению Генеральной прокуратуры. Аудитория сайта уменьшилась в 10 раз. Владельцы сайта не видят смысла в поддержке погодного сервера в таких условиях. Сайт будет закрыт в октябре.
темп.,
°C
ветер,
м/с
пор.,
м/с
влажн.,
%
обл.,
%
осадки,
мм/ч
давл.,
гПа
погр.,
м
30 сентября, пт
пт3000:00+3ююз3495100 1.4 1000261
03:00+4зюз349183 0.2 998242
06:00+1зюз45868 0.2 99858
09:00+2юз458193 0.0 998314
12:00+5з7157256 0.3 9971383
15:00+6з7136120 0.1 9991481
18:00+4з6127199 0.1 10011348
21:00+3зюз487840 0.1 1003429
1 октября, сб
сб100:00+1ююз459540 0.3 1004108
03:000юз44906 0.1 100460
06:00+1юз2288100 0.3 100375
09:00+1зюз1197100 4.1 1005108
12:00+4юз228457 4.3 1006487
15:00+6зюз35605 0.0 10061167
18:00+4зюз457719 0.1 1008224
21:000юз448597 0.0 101059
2 октября, вс
вс200:000юз448595 0.0 101069
03:00+1юз348383 0.0 101063
06:000юз348099 0.0 101064
09:00+1юз447936 0.0 1009155
12:00+5зюз456877 0.1 1009900
15:00+5з585332 0.4 10091595
18:00+3зюз365939 0.4 1010566
21:00−1зюз44795 0.0 101448
3 октября, пн
пн300:00−1юз44814 0.0 101556
03:00−1юз458033 0.0 101762
06:00−1юз45808 0.0 101874
09:00+1зюз4576100 0.0 1019190
12:00+4юз4461100 0.0 1018754
15:00+4юз3457100 0.0 1017896
18:00+3юз4574100 0.0 1016404
21:00+1юз3587100 0.2 1015183
4 октября, вт
вт400:000ююз469599 0.4 1014201
03:00+2ююз4797100 1.4 1011263
06:00+2ююз5794100 2.5 1011198
09:00+4юз4694100 1.3 1011187
12:00+4зюз3492100 2.5 1011184
15:00+5ююз2392100 1.1 1009197
18:00+5ююз3495100 1.6 100891
21:00+5юз2297100 0.0 100836